Track ONEWEB-0188 now! 10-day predictions ONEWEB-0188 is classified as:
1 48231U 21031X 22136.54016778 .00000369 00000-0 95945-3 0 9990 2 48231 87.9061 226.3673 0002014 109.6231 250.5116 13.14503565 52043